Flag for France Weather past 2 weeks in Nîmes, France

Now
55 °F

Clear.


Feels Like: 55 °F
Forecast: 46 / 75 °F
Wind: 5 mph from Southwest

Location: Nimes / Garons


UV Index: 3 (Moderate)

Visibility: N/A


Pressure: 30.01 "Hg

Humidity: 77%

Dew point: 48 °F

Location of NîmesLocation

Historic Weather in Nîmes

°F

Nîmes temperature yesterday

Maximum temperature yesterday: 68 °F (at 3:00 PM)
Minimum temperature yesterday: 48 °F (at 5:00 AM)
Average temperature yesterday: 57 °F

Past Weeks' High & Low Weather Summary

 TemperatureHumidityPressure
High77 °F (Apr 14, 3:30 PM)94% (Apr 11, 2:00 AM)30.21 "Hg (Apr 11, 2:00 AM)
Low45 °F (Apr 17, 5:30 AM)10% (Apr 15, 3:30 PM)29.59 "Hg (Apr 3, 6:00 AM)
Average61 °F50%29.99 "Hg
* Reported Apr 2 10:00 PM — Apr 17 10:00 PM, Nîmes, Weather by CustomWeather, © 2014

Note: Actual official high and low records may vary slightly from our data, if they occured in-between our weather recording intervals... More about our weather records

Advertising

Historic Weather Conditions — Data for Previous 24 hours

 ConditionsComfort  
Time TempWeatherWind HumidityBarometerVisibility
10:00 PM
Apr 17
55 °FClear.2 mph77%30.01 "HgN/A
9:30 PM55 °FClear.2 mph77%30.01 "HgN/A
9:00 PM57 °FClear.5 mph72%29.98 "HgN/A
8:30 PM57 °FClear.6 mph72%29.98 "HgN/A
8:00 PM59 °FClear.7 mph68%29.98 "HgN/A
7:00 PM63 °FClear.9 mph59%29.98 "HgN/A
6:30 PM64 °FClear.9 mph56%29.98 "HgN/A
6:00 PM64 °FClear.9 mph56%29.98 "HgN/A
5:30 PM64 °FClear.10 mph56%30.01 "HgN/A
5:00 PM64 °FClear.10 mph52%30.01 "HgN/A
4:30 PM66 °FClear.12 mph49%30.01 "HgN/A
4:00 PM66 °FClear.12 mph49%30.01 "HgN/A
3:30 PM68 °FPassing clouds.9 mph43%30.04 "HgN/A
3:00 PM68 °FClear.6 mph40%30.04 "HgN/A
2:30 PM68 °FClear.5 mph40%30.04 "HgN/A
2:00 PM68 °FClear.5 mph35%30.07 "HgN/A
1:30 PM64 °FPassing clouds.3 mph40%30.07 "HgN/A
1:00 PM64 °FScattered clouds.3 mph40%30.09 "HgN/A
12:30 PM64 °FClear.5 mph43%30.09 "HgN/A
12:00 PM64 °FClear.2 mph43%30.09 "HgN/A
11:30 AM61 °FClear.2 mph52%30.12 "HgN/A
11:00 AM59 °FClear.3 mph55%30.12 "HgN/A
10:30 AM59 °FClear.2 mph55%30.12 "HgN/A
10:00 AM55 °FClear.5 mph59%30.12 "HgN/A
9:30 AM55 °FClear.5 mph59%30.12 "HgN/A
9:00 AM54 °FClear.3 mph58%30.12 "HgN/A
8:30 AM52 °FClear.5 mph62%30.15 "HgN/A
8:00 AM48 °FClear.3 mph71%30.15 "HgN/A
7:30 AM46 °FClear.2 mph71%30.12 "HgN/A
7:00 AM45 °FClear.2 mph71%30.12 "HgN/A
6:30 AM45 °FClear.3 mph71%30.12 "HgN/A
6:00 AM45 °FClear.2 mph71%30.12 "HgN/A
5:30 AM45 °FClear.3 mph71%30.15 "HgN/A
5:00 AM46 °FClear.2 mph71%30.15 "HgN/A
4:30 AM46 °FClear.1 mph71%30.15 "HgN/A
4:00 AM48 °FClear.No wind66%30.15 "HgN/A
3:30 AM48 °FClear.No wind71%30.15 "HgN/A
3:00 AM48 °FClear.2 mph66%30.15 "HgN/A
2:30 AM48 °FClear.No wind71%30.18 "HgN/A
2:00 AM48 °FClear.No wind66%30.18 "HgN/A
1:30 AM48 °FClear.No wind66%30.18 "HgN/A
1:00 AM50 °FClear.No wind62%30.18 "HgN/A
12:30 AM50 °FClear.No wind62%30.18 "HgN/A
12:00 AM52 °FClear.2 mph58%30.18 "HgN/A
11:30 PM
Apr 16
52 °FClear.2 mph58%30.18 "HgN/A
11:00 PM52 °FClear.No wind58%30.18 "HgN/A
Weather by CustomWeather, © 2014

See weather overview